Flag Weather past 2 weeks in Kugluktuk, Nunavut Territory, Canada

Now
-13 °F

Clear.


Feels Like: -38 °F
Forecast: -12 / -1 °F
Wind: 17 mph from Southwest

Location: Coppermine

Current Time: Nov 28, 2014 at 3:00:24 AM

Latest Report: Nov 28, 2014 at 2:00 AM


Visibility: 15 mi

Pressure: 30.13 "Hg

Humidity: 76%

Dew point: -18 °F

Location of KugluktukLocation

Historic Weather in Kugluktuk — Graph

°F

Kugluktuk temperature yesterday

Maximum temperature yesterday: 1 °F (at 12:00 AM)
Minimum temperature yesterday: -9 °F (at 11:00 PM)
Average temperature yesterday: -3 °F

Past Weeks' High & Low Weather Summary

 TemperatureHumidityPressure
High52 °F (Nov 15, 5:00 PM)100% (Nov 25, 10:00 PM)30.59 "Hg (Nov 25, 10:00 PM)
Low-22 °F (Nov 24, 9:00 PM)17% (Nov 15, 5:00 PM)29.83 "Hg (Nov 22, 9:00 AM)
Average-2 °F79%30.18 "Hg
* Reported Nov 13 2:00 AM — Nov 28 2:00 AM, Kugluktuk, Weather by CustomWeather, © 2014

Note: Actual official high and low records may vary slightly from our data, if they occured in-between our weather recording intervals... More about our weather records

Advertising

Kugluktuk weather history for previous 24 hours

 ConditionsComfort  
Time TempWeatherWind HumidityBarometerVisibility
2:00 AM
Nov 28
-13 °FClear.17 mph76%30.13 "Hg15 mi
1:00 AM-11 °FPassing clouds.20 mph70%30.16 "Hg15 mi
12:00 AM-9 °FPassing clouds.21 mph70%30.19 "Hg15 mi
11:00 PM
Nov 27
-9 °FPassing clouds.21 mph70%30.22 "Hg15 mi
10:00 PM-6 °FPassing clouds.26 mph70%30.24 "Hg15 mi
9:00 PM-6 °FPassing clouds.21 mph70%30.26 "Hg15 mi
8:00 PM-4 °FPassing clouds.23 mph65%30.27 "Hg15 mi
7:00 PM-6 °FPartly cloudy.16 mph70%30.29 "Hg15 mi
6:00 PM-4 °FMostly cloudy.26 mph71%30.29 "Hg12 mi
5:00 PM-4 °FMostly cloudy.20 mph71%30.33 "Hg15 mi
4:00 PM-4 °FMostly cloudy.20 mph71%30.35 "Hg15 mi
3:00 PM-2 °FMostly cloudy.22 mph65%30.36 "Hg15 mi
2:00 PM-4 °FMostly cloudy.22 mph65%30.36 "Hg15 mi
1:00 PM-2 °FMostly cloudy.22 mph65%30.38 "Hg15 mi
12:00 PM-2 °FMostly cloudy.22 mph71%30.38 "Hg15 mi
11:00 AM-4 °FOvercast.20 mph77%30.39 "Hg8 mi
10:00 AM-6 °FSnow flurries. Mostly cloudy.21 mph77%30.38 "Hg5 mi
9:00 AM-4 °FSnow flurries. Mostly cloudy.23 mph77%30.38 "Hg6 mi
8:00 AM-4 °FSnow flurries. Overcast.18 mph71%30.38 "Hg6 mi
7:00 AM-2 °FSnow flurries. Passing clouds.26 mph77%30.37 "Hg6 mi
6:00 AM-2 °FSnow flurries. Overcast.31 mph71%30.36 "Hg4 mi
5:00 AM-2 °FSnow flurries. Passing clouds.31 mph77%30.36 "Hg6 mi
4:00 AM-2 °FSnow flurries. Low level haze.35 mph77%30.34 "Hg6 mi
3:00 AM0 °FSnow flurries. Passing clouds.39 mph78%30.31 "Hg4 mi
Weather by CustomWeather, © 2014

See weather overviewHow to use our weather pages